TimeMST,TemperatureF,Dew PointF,Humidity,Sea Level PressureIn,VisibilityMPH,Wind Direction,Wind SpeedMPH,Gust SpeedMPH,PrecipitationIn,Events,Conditions,WindDirDegrees,DateUTC
12:53 AM,68.0,28.9,23,29.88,10.0,Calm,Calm,-,N/A,,Clear,0,2012-09-17 07:53:00
1:53 AM,69.1,27.0,21,29.88,10.0,Calm,Calm,-,N/A,,Clear,0,2012-09-17 08:53:00
2:53 AM,66.9,27.0,22,29.88,10.0,South,3.5,-,N/A,,Clear,170,2012-09-17 09:53:00
3:53 AM,66.9,28.0,23,29.88,10.0,Calm,Calm,-,N/A,,Clear,0,2012-09-17 10:53:00
4:53 AM,64.4,28.4,26,30.08,10.0,Calm,Calm,-,N/A,,Clear,0,2012-09-17 11:53:00
5:53 AM,64.0,30.0,28,29.91,10.0,Calm,Calm,-,N/A,,Clear,0,2012-09-17 12:53:00
6:53 AM,66.2,28.4,24,30.10,10.0,Calm,Calm,-,N/A,,Clear,0,2012-09-17 13:53:00
7:53 AM,72.0,28.9,20,29.93,10.0,Calm,Calm,-,N/A,,Clear,0,2012-09-17 14:53:00
8:53 AM,75.0,30.0,19,29.94,10.0,Variable,4.6,-,N/A,,Clear,0,2012-09-17 15:53:00
9:53 AM,77.0,30.9,19,29.93,10.0,Calm,Calm,-,N/A,,Clear,0,2012-09-17 16:53:00
10:53 AM,82.9,30.0,15,29.90,10.0,North,8.1,-,N/A,,Clear,350,2012-09-17 17:53:00
11:53 AM,84.0,28.0,13,29.91,10.0,North,4.6,-,N/A,,Clear,350,2012-09-17 18:53:00
12:53 PM,86.0,26.1,11,29.89,10.0,SE,5.8,-,N/A,,Clear,130,2012-09-17 19:53:00
1:53 PM,86.0,25.0,11,29.86,10.0,NNE,4.6,-,N/A,,Clear,20,2012-09-17 20:53:00
2:53 PM,86.0,25.0,11,29.84,10.0,South,5.8,-,N/A,,Clear,190,2012-09-17 21:53:00
3:53 PM,87.1,27.0,11,29.82,10.0,Variable,4.6,-,N/A,,Clear,0,2012-09-17 22:53:00
4:53 PM,87.1,27.0,11,29.82,10.0,Calm,Calm,-,N/A,,Clear,0,2012-09-17 23:53:00
5:53 PM,87.1,25.0,10,29.83,10.0,Calm,Calm,-,N/A,,Clear,0,2012-09-18 00:53:00
6:53 PM,82.9,25.0,12,29.84,10.0,NW,4.6,-,N/A,,Clear,310,2012-09-18 01:53:00
7:53 PM,80.1,28.0,15,29.86,10.0,Calm,Calm,-,N/A,,Clear,0,2012-09-18 02:53:00
8:53 PM,79.0,24.1,13,29.88,10.0,West,6.9,-,N/A,,Clear,270,2012-09-18 03:53:00
9:53 PM,75.9,21.9,13,29.91,10.0,Variable,3.5,-,N/A,,Clear,0,2012-09-18 04:53:00
10:53 PM,75.0,19.0,12,29.92,10.0,WNW,4.6,-,N/A,,Clear,290,2012-09-18 05:53:00
11:53 PM,73.9,19.0,13,29.92,10.0,West,4.6,-,N/A,,Clear,280,2012-09-18 06:53:00